Torna al catalogo

GCOM W1

AttivoScienzaSSO
NORAD 38337·PAYLOAD·🇯🇵 Japan

Lanciato May 17, 2012 da Tanegashima Space Center

Loading…

Prossimi Passaggi (prossime 24 ore)

TLE

AggiornatoSource: Space-Track

Epoca: Sep 14, 2026, 07:43 UTC

1 38337U 12025A   26257.32204837  .00000329  00000-0  82928-4 0  9992
2 38337  98.2066 196.5411 0001496  86.8251  74.4441 14.57133635762012

Traccia GCOM W1 in tempo reale con AllMySat

Download on the App Store